Theta_e
291 291 292 294 295 293 293 298 302 300 296 295 296 297 300 301 303 305 308 312 313 314 316 317 319 319 318 319 319 320 320 318 317 318 319 319 317 316 314 314 310 303 302 299
290 293 293 294 292 294 292 292 294 296 295 292 294 295 300 301 305 306 309 312 313 313 314 314 318 319 318 320 319 319 319 317 317 317 317 318 317 316 314 313 311 305 302 300
291 292 293 294 292 293 292 291 291 292 292 292 293 294 298 298 298 303 303 306 310 311 314 315 315 318 319 320 319 319 318 317 318 317 316 316 317 314 313 312 311 305 302 300
292 293 294 291 291 293 292 290 289 290 291 291 291 294 296 296 296 300 300 301 305 309 313 316 317 316 319 318 318 317 317 316 316 316 314 314 315 315 313 311 311 305 303 299
292 292 294 291 290 290 292 291 289 289 290 290 291 297 297 294 297 297 298 301 303 306 309 314 315 316 318 318 318 317 317 316 316 315 313 314 313 311 310 310 309 310 304 304
292 293 293 289 288 289 293 294 287 288 289 290 291 292 293 293 295 295 296 300 303 305 308 314 317 316 316 318 317 317 316 316 316 315 313 313 312 309 309 307 307 306 301 295
291 293 291 286 288 288 289 288 287 288 288 290 291 290 291 292 293 294 295 298 302 305 307 309 312 315 317 317 316 316 315 316 315 314 313 313 311 308 307 308 305 297 297 294
289 290 289 285 288 287 287 286 286 288 288 289 290 289 291 291 291 292 295 297 301 303 305 307 309 311 314 314 315 316 316 315 315 313 312 311 312 306 303 300 302 297 295 295
286 287 286 285 286 285 286 286 287 288 289 288 289 289 290 289 289 290 292 294 297 300 302 304 305 307 309 313 311 312 312 315 313 311 310 307 307 305 300 299 302 295 293 293
283 286 284 284 285 285 286 287 288 288 287 288 288 289 288 288 288 289 290 293 295 296 298 301 302 302 304 307 308 309 309 310 309 307 304 301 300 300 299 296 294 296 292 292
282 284 283 285 285 285 286 287 287 287 287 287 288 288 287 287 287 288 289 290 291 293 294 296 297 298 298 300 303 304 303 300 298 298 297 295 295 295 295 295 296 293 293 293
281 282 281 282 285 287 287 287 286 286 286 287 287 287 287 287 287 287 288 288 289 290 291 292 293 294 295 295 297 300 298 296 296 295 294 294 293 291 291 292 291 292 292 293
280 281 283 285 286 286 286 286 286 286 286 286 286 287 286 286 286 287 287 287 287 288 289 289 290 291 292 293 294 295 294 293 292 292 292 291 290 290 289 288 290 292 293 293
283 283 284 285 285 285 285 285 285 285 286 286 286 286 286 286 286 286 286 286 287 287 287 288 288 288 289 290 291 291 290 290 290 290 290 290 290 290 290 291 290 289 289 289
283 284 284 285 285 285 285 285 285 284 285 285 285 285 286 285 285 285 286 286 286 286 287 287 287 287 288 289 289 289 289 289 289 289 289 289 290 290 290 289 288 286 286 286
283 284 284 284 284 284 284 284 284 284 284 284 284 285 285 285 285 285 286 286 286 286 286 287 286 287 287 288 288 288 288 288 288 288 288 289 289 288 287 287 287 287 285 283
282 283 283 283 283 283 283 284 284 284 284 284 284 285 286 286 286 285 285 286 286 286 286 286 286 287 287 288 288 288 287 288 289 289 289 288 288 288 288 288 287 285 283 283
281 282 282 283 283 283 284 284 284 284 284 285 286 286 286 286 285 285 286 286 287 286 286 287 288 288 289 289 290 290 290 290 290 290 289 289 289 289 288 286 283 282 282 281
282 282 283 283 283 284 284 284 284 284 284 285 285 285 285 285 285 285 286 287 286 285 285 287 288 289 289 289 290 290 289 289 289 289 288 288 286 284 283 282 282 282 281 280
281 282 283 283 284 284 284 284 284 284 284 284 284 284 284 284 284 285 285 284 284 284 284 285 285 286 286 287 287 288 288 287 287 286 285 284 283 282 282 282 282 281 280 280
280 281 282 283 283 283 283 283 283 283 283 283 283 283 283 283 283 283 284 283 283 283 284 284 285 285 285 285 285 285 285 285 285 284 283 283 282 282 282 282 280 280 280 280
280 280 281 281 282 282 282 282 282 282 282 282 282 282 282 282 282 282 282 282 282 283 284 284 284 284 284 284 284 284 284 284 283 283 282 282 282 282 281 280 280 279 280 280
280 280 280 281 281 280 281 281 282 282 282 282 282 282 282 282 282 282 282 282 282 283 284 283 283 284 284 284 284 283 283 282 282 282 282 282 282 281 280 280 279 279 279 279
279 279 280 280 280 280 281 281 281 281 282 281 281 281 282 282 282 282 282 281 282 283 283 283 283 282 283 282 282 282 282 281 281 281 281 281 281 280 280 279 279 279 279 279
279 279 279 280 280 279 280 280 280 280 281 281 281 281 281 282 282 281 282 281 281 282 282 282 282 282 283 282 282 281 281 281 280 280 281 280 280 280 279 279 279 279 279 279
278 279 279 279 279 279 279 280 280 280 280 280 281 281 281 281 281 281 282 281 281 281 281 282 282 282 282 282 282 282 281 281 280 280 280 280 280 280 279 279 278 278 278 278
278 277 278 278 279 279 279 279 280 280 280 280 280 280 281 281 281 281 281 281 281 281 281 281 281 281 281 281 281 281 281 281 280 280 280 279 280 280 280 279 279 279 279 278
Wind_Speed
14 15 10 10 14 24 22 16 6 13 8 20 16 14 12 17 27 28 25 21 19 14 5 24 32 34 38 43 46 50 51 51 55 52 53 56 54 49 51 48 45 47 48 46
4 4 13 2 21 13 24 21 13 12 2 18 12 15 24 28 26 26 24 20 19 14 7 3 23 32 40 41 46 49 49 53 53 50 50 55 53 52 48 49 49 49 49 46
5 15 13 2 20 14 7 19 16 16 13 17 18 16 18 28 28 23 23 25 21 18 11 5 15 28 37 41 40 46 49 52 52 48 49 52 50 51 49 49 48 48 47 47
5 12 4 3 13 7 4 20 20 14 19 22 20 12 27 32 32 27 27 26 24 22 17 14 9 28 34 38 40 45 49 49 48 49 47 50 48 47 49 51 48 48 49 47
4 5 3 9 26 16 7 5 24 25 26 26 37 8 6 40 31 24 23 24 23 21 18 13 4 24 33 36 41 42 46 47 46 45 47 49 48 49 50 49 48 48 50 47
3 4 6 9 25 34 6 2 28 27 20 20 28 12 9 37 31 27 24 22 21 18 13 9 4 17 28 36 37 42 44 45 45 46 48 49 49 48 48 50 50 47 45 47
8 3 3 15 23 29 9 9 33 31 26 24 11 12 28 26 25 24 23 20 16 13 11 11 7 4 22 31 34 37 39 44 45 47 47 48 46 45 49 48 47 45 46 46
5 5 5 29 9 8 8 20 26 29 29 25 25 27 22 21 22 22 21 17 13 11 10 8 6 3 5 15 32 38 41 43 44 45 46 47 46 46 49 51 51 46 49 49
3 3 7 24 4 17 21 22 24 28 27 28 24 26 22 20 19 18 17 15 12 10 9 8 5 1 3 11 20 24 40 40 41 42 41 42 45 45 46 46 51 51 51 49
7 1 18 21 14 30 31 27 27 25 26 23 23 21 19 17 16 15 14 13 11 9 7 6 5 3 4 13 21 29 34 38 39 39 38 38 40 43 48 50 47 51 54 52
5 6 22 8 30 33 34 26 24 24 21 18 17 16 14 13 13 12 12 12 10 9 8 6 4 4 7 10 14 22 27 32 35 36 37 39 42 45 47 46 49 53 53 49
4 19 15 24 33 28 26 24 22 20 19 16 13 11 11 12 12 12 13 12 12 11 9 8 7 8 9 11 13 19 27 29 31 35 37 41 44 42 39 42 44 48 49 46
9 23 26 28 23 20 20 19 16 15 12 12 11 10 11 14 14 14 14 14 15 14 12 11 12 13 12 14 19 25 30 33 35 37 39 42 42 44 43 34 38 36 36 34
13 19 15 13 15 16 14 12 10 10 9 10 12 13 15 17 17 18 18 16 14 15 16 16 17 17 15 16 20 25 30 33 35 36 37 37 37 38 41 44 41 34 30 30
16 8 9 9 9 10 8 8 12 15 15 16 16 18 18 20 21 21 19 18 18 20 21 21 22 22 19 20 23 27 30 31 32 34 36 39 43 46 45 44 41 38 33 28
10 5 7 10 11 11 13 15 17 18 19 21 22 22 22 22 22 22 21 21 24 26 23 22 24 24 23 26 30 33 35 37 40 43 45 46 45 45 44 41 39 36 32 30
8 11 11 14 16 17 19 18 19 20 20 23 25 27 28 29 30 30 29 26 25 25 23 22 23 19 21 24 28 34 37 39 41 43 42 41 39 38 37 36 34 34 32 27
10 11 12 13 17 19 20 20 20 21 23 23 25 26 28 29 30 30 30 29 30 29 26 23 21 22 23 24 26 29 31 32 32 31 32 32 32 30 30 31 30 29 27 23
13 15 15 18 20 21 22 22 22 22 23 24 26 28 27 27 27 28 29 30 30 29 26 24 23 24 24 23 23 25 26 28 28 27 26 26 27 28 29 29 29 26 24 23
16 17 19 20 20 21 22 20 20 22 22 22 22 24 25 25 24 25 26 30 26 23 19 19 18 20 20 18 18 19 20 21 23 23 23 24 24 23 23 21 21 21 21 21
16 17 19 20 20 20 20 18 18 21 19 20 22 23 22 21 21 22 25 26 21 18 19 19 19 20 19 19 18 19 19 20 20 21 21 21 21 20 20 19 19 19 20 19
14 15 16 16 17 17 17 16 17 18 19 19 19 19 21 24 23 23 22 22 18 17 18 20 20 19 19 18 18 17 17 16 16 16 16 16 16 17 17 17 17 18 17 16
12 14 14 15 16 16 15 16 16 16 18 19 19 19 20 21 21 23 21 18 17 18 19 20 19 18 17 16 16 15 15 14 14 14 13 13 13 13 13 14 15 15 15 14
10 11 13 13 13 14 17 17 15 15 15 15 16 16 15 17 19 18 18 16 17 18 19 19 18 17 15 15 14 13 12 12 11 12 12 12 11 10 11 11 13 13 13 13
10 11 11 11 13 15 14 13 14 14 13 13 13 14 14 14 15 13 15 18 18 18 19 17 15 14 13 12 11 10 9 9 9 9 9 8 8 8 8 8 9 10 11 12
10 10 11 11 12 13 12 10 12 13 11 11 11 11 11 11 10 9 9 11 12 13 14 15 14 13 12 10 8 7 6 4 4 4 5 5 5 6 6 7 8 8 9 9
11 9 9 9 9 9 10 10 10 11 10 9 9 9 9 9 9 7 6 6 6 7 8 8 8 9 8 8 6 4 3 3 4 5 5 6 6 6 7 8 9 9 9 10
Wind_Direction
296 296 300 313 352 24 24 2 16 103 19 13 5 10 14 24 25 33 42 58 64 74 147 201 200 199 205 202 203 195 202 203 205 211 213 213 215 215 211 211 215 211 207 203
306 349 324 43 8 31 27 16 24 28 9 357 349 9 29 25 30 24 28 53 50 52 55 189 211 199 202 193 200 197 203 199 204 208 212 212 216 215 212 209 207 210 207 206
297 315 311 338 8 358 32 26 18 25 339 341 359 15 31 22 14 24 20 22 26 20 17 332 217 205 195 199 202 202 202 201 205 211 212 213 217 218 215 209 207 207 205 206
298 321 41 115 3 344 1 36 20 8 3 2 354 331 39 19 6 14 12 11 13 7 3 344 263 207 198 199 203 203 199 201 207 208 211 213 215 216 212 205 205 204 203 202
339 321 290 332 353 342 318 64 18 3 358 2 357 46 20 3 7 0 359 3 6 359 356 4 131 194 199 196 202 205 203 202 207 208 208 211 212 212 206 201 200 206 206 205
319 337 23 358 332 334 282 311 8 356 355 354 350 11 338 341 343 345 352 359 357 355 358 13 126 185 197 198 196 199 200 204 206 208 211 211 212 209 203 198 200 201 199 195
348 340 78 355 342 331 38 314 330 339 338 341 350 326 315 331 336 340 344 353 354 352 6 9 23 165 191 196 199 199 198 203 204 208 211 212 209 209 200 194 196 192 191 186
341 354 358 6 1 32 305 309 319 329 330 333 332 334 336 338 337 340 345 352 360 359 7 -0 358 6 229 186 186 198 201 202 203 205 207 208 210 202 197 192 188 186 185 185
28 297 346 343 56 346 336 321 325 323 331 335 330 336 338 337 341 347 351 354 3 8 1 358 1 359 209 176 175 195 189 195 198 198 202 201 203 199 189 189 188 179 177 176
333 104 334 318 337 343 340 330 331 336 337 341 339 342 341 348 354 359 3 10 11 7 4 12 20 69 137 181 193 194 185 185 188 192 189 189 192 191 187 181 176 182 175 172
275 303 331 112 325 327 332 337 340 339 347 347 354 357 4 8 14 20 25 28 28 31 36 47 58 100 128 156 183 184 179 170 169 172 174 171 173 175 179 180 186 178 176 174
279 306 297 288 314 338 334 337 342 344 354 6 14 26 36 38 38 41 48 51 56 59 66 72 88 108 125 143 167 175 165 163 165 165 164 166 166 159 166 170 172 176 174 170
265 298 304 310 323 331 339 342 351 1 11 25 36 48 56 59 57 63 66 67 69 74 82 95 104 111 125 146 159 158 157 156 156 159 160 160 160 159 149 151 164 167 166 168
330 322 312 331 336 346 358 10 21 35 44 59 70 76 81 80 78 76 75 81 87 91 96 101 105 109 126 142 149 148 146 150 152 154 157 158 158 158 156 155 151 144 148 149
342 339 327 345 359 15 25 44 57 64 70 74 80 85 85 84 83 86 90 91 96 98 101 104 108 115 129 138 139 140 143 145 148 149 150 150 150 148 148 146 142 140 142 144
337 14 40 50 53 57 64 67 73 76 82 84 84 86 88 89 90 91 92 95 94 94 99 105 112 121 131 133 133 134 135 140 142 141 143 145 145 145 144 143 142 143 144 144
43 41 54 63 68 73 74 81 85 87 91 92 92 94 92 90 88 86 86 88 91 94 98 105 113 121 127 131 136 135 137 141 144 143 143 144 144 143 145 145 146 151 154 154
83 89 91 91 87 86 84 85 89 91 90 94 94 90 87 85 85 86 86 88 87 84 85 93 103 109 115 123 128 132 135 135 137 138 140 140 140 142 149 150 148 147 147 149
89 93 97 96 91 88 86 84 86 89 89 90 87 84 84 84 85 85 85 83 78 76 75 84 92 96 99 105 113 118 123 127 129 132 138 145 148 148 150 151 153 154 152 149
86 91 91 90 88 84 81 79 82 82 80 80 81 80 81 82 84 83 79 76 71 72 78 83 91 95 99 105 113 120 128 135 140 140 142 143 145 147 150 151 151 150 150 150
73 78 80 81 79 79 78 77 79 78 79 80 79 79 79 79 81 85 84 78 71 75 82 86 88 92 96 102 111 117 124 129 133 138 143 147 147 148 150 151 152 154 155 156
76 78 82 85 85 84 82 82 80 80 79 79 80 81 82 80 77 77 76 77 75 79 86 87 89 91 95 101 105 110 115 121 127 133 140 147 151 153 156 159 161 161 163 164
82 84 87 86 84 83 87 84 81 82 83 82 80 80 81 78 76 78 73 71 74 80 88 88 90 93 97 103 106 110 115 121 126 133 140 146 152 159 163 166 169 171 171 171
88 90 86 87 91 92 84 80 82 82 84 85 81 81 85 85 86 77 79 76 75 81 83 84 87 89 92 95 98 103 111 118 127 137 144 148 154 163 173 178 180 181 182 182
94 96 96 97 92 82 80 81 85 83 83 83 83 81 84 92 93 87 77 76 74 75 80 80 80 81 84 86 90 97 109 119 128 136 144 152 159 164 174 179 184 190 192 193
94 97 96 92 89 87 82 81 82 81 76 76 79 81 82 84 91 92 89 82 76 74 74 75 75 76 79 84 89 94 99 112 128 144 157 169 178 185 191 194 196 197 198 201
90 90 100 101 94 88 85 81 81 80 79 75 74 78 80 83 87 90 94 92 85 74 66 63 58 54 56 57 61 73 104 151 177 187 198 206 207 206 211 214 216 218 219 217